Weather History for KSAT - September, 2012

Change the Weather History Date:

Wednesday, September 12, 2012

  Actual Average Record
Temperature  
Mean Temperature 86 °F 81 °F  
Max Temperature 98 °F 91 °F 103 °F (1893)
Min Temperature 73 °F 70 °F 56 °F (1968)
Degree Days  
Heating Degree Days 0 0  
Month to date heating degree days 0 0  
Since 1 July heating degree days 0 0  
Cooling Degree Days 21 16  
Month to date cooling degree days 236 207  
Year to date cooling degree days 3029 2598  
Growing Degree Days 36 (Base 50)    
Moisture  
Dew Point 71 °F    
Average Humidity 68    
Maximum Humidity 100    
Minimum Humidity 35    
Precipitation  
Precipitation 0.00 in 0.11 in 1.56 in (1924)
Month to date precipitation 0.00 1.30  
Year to date precipitation 29.05 22.24  
Snow  
Snow 0.00 in - - ()
Month to date snowfall 0.0  
Since 1 July snowfall 0.0  
Since 1 September snowfall 0.0  
Snow Depth 0.00 in    
Sea Level Pressure  
Sea Level Pressure 29.96 in    
Wind  
Wind Speed 8 mph (ESE)    
Max Wind Speed 31 mph    
Max Gust Speed 38 mph    
Visibility 10 miles    
Events      
T = Trace of Precipitation, MM = Missing Value Source: NWS Daily Summary

Daily Weather History Graph

Daily Weather History Graph

Search for Another Location

Airport or City:

Trip Planner

Search our weather history database for the weather conditions in past years. The results will help you decide how hot, cold, wet, or windy it might be!

Date:

Astronomy

Sep. 12, 2012 Rise Set
Actual Time 7:17 AM CDT 7:42 PM CDT
Civil Twilight 6:53 AM CDT 8:05 PM CDT
Nautical Twilight 6:25 AM CDT 8:33 PM CDT
Astronomical Twilight 5:57 AM CDT 9:02 PM CDT
Moon 3:48 AM CDT (9/12) 5:20 PM CDT (9/12)
Length of Visible Light 13h 12m
Length of Day
12h 24m
Waning Crescent, 13% of the Moon is Illuminated
Sep 12
Waning Crescent
Sep 15
New
Sep 22
First Quarter
Sep 29
Full
Oct 8
Last Quarter

Hourly Weather History & Observations

Time (CDT) Temp. Heat Index Dew Point Humidity Pressure Visibility Wind Dir Wind Speed Gust Speed Precip Events Conditions
12:40 AM 77.0 °F - 71.6 °F 83% 30.03 in 10.0 mi SE 6.9 mph - N/A   Mostly Cloudy
12:53 AM 75.9 °F - 71.1 °F 85% 29.98 in 10.0 mi SE 8.1 mph - N/A   Mostly Cloudy
1:53 AM 75.0 °F - 72.0 °F 90% 29.97 in 10.0 mi SE 6.9 mph - N/A   Mostly Cloudy
2:53 AM 77.0 °F - 73.0 °F 88% 29.96 in 10.0 mi SE 8.1 mph - N/A   Mostly Cloudy
3:53 AM 75.9 °F - 73.0 °F 91% 29.95 in 10.0 mi SSE 9.2 mph - N/A   Overcast
4:53 AM 75.0 °F - 73.0 °F 94% 29.94 in 10.0 mi ESE 4.6 mph - N/A   Overcast
5:53 AM 73.9 °F - 73.0 °F 97% 29.95 in 10.0 mi East 6.9 mph - N/A   Mostly Cloudy
6:49 AM 73.4 °F - 73.4 °F 100% 30.01 in 8.0 mi East 5.8 mph - N/A   Mostly Cloudy
6:53 AM 73.0 °F - 72.0 °F 96% 29.96 in 8.0 mi East 4.6 mph - N/A   Mostly Cloudy
7:12 AM 73.4 °F - 73.4 °F 100% 30.02 in 8.0 mi East 4.6 mph - N/A   Scattered Clouds
7:50 AM 73.4 °F - 73.4 °F 100% 30.03 in 8.0 mi East 4.6 mph - N/A   Mostly Cloudy
7:53 AM 73.9 °F - 73.0 °F 97% 29.98 in 10.0 mi East 5.8 mph - N/A   Mostly Cloudy
8:53 AM 74.1 °F - 73.0 °F 96% 30.00 in 10.0 mi East 6.9 mph - N/A   Mostly Cloudy
9:37 AM 78.8 °F - 73.4 °F 83% 30.05 in 10.0 mi East 6.9 mph - N/A   Mostly Cloudy
9:53 AM 79.0 °F - 73.0 °F 82% 30.01 in 10.0 mi ESE 6.9 mph - N/A   Mostly Cloudy
10:02 AM 82.4 °F 88.2 °F 73.4 °F 74% 30.06 in 10.0 mi ESE 10.4 mph - N/A   Mostly Cloudy
10:53 AM 82.0 °F 86.7 °F 72.0 °F 71% 30.01 in 10.0 mi East 8.1 mph - N/A   Mostly Cloudy
11:53 AM 88.0 °F 94.7 °F 72.0 °F 59% 29.99 in 10.0 mi South 8.1 mph - N/A   Mostly Cloudy
12:53 PM 90.0 °F 96.4 °F 71.1 °F 54% 29.96 in 10.0 mi South 8.1 mph - N/A   Mostly Cloudy
1:53 PM 91.9 °F 95.9 °F 68.0 °F 45% 29.94 in 10.0 mi South 5.8 mph 17.3 mph N/A   Mostly Cloudy
2:53 PM 91.9 °F 95.4 °F 66.9 °F 44% 29.91 in 10.0 mi South 9.2 mph - N/A   Scattered Clouds
3:53 PM 93.9 °F 97.0 °F 66.0 °F 40% 29.89 in 10.0 mi SE 11.5 mph - N/A   Scattered Clouds
4:53 PM 98.1 °F 101.8 °F 66.0 °F 35% 29.86 in 10.0 mi SSE 10.4 mph - N/A   Scattered Clouds
5:53 PM 95.0 °F 97.4 °F 64.9 °F 37% 29.86 in 10.0 mi SE 8.1 mph - N/A   Scattered Clouds
6:53 PM 84.0 °F 87.0 °F 68.0 °F 58% 29.91 in 10.0 mi SE 26.5 mph 33.4 mph N/A   Mostly Cloudy
7:53 PM 81.0 °F 84.4 °F 70.0 °F 69% 29.91 in 10.0 mi SSE 13.8 mph - N/A   Scattered Clouds
8:53 PM 79.0 °F - 70.0 °F 74% 29.92 in 10.0 mi East 3.5 mph - N/A   Scattered Clouds
9:53 PM 79.0 °F - 71.1 °F 77% 29.94 in 10.0 mi East 4.6 mph - N/A   Scattered Clouds
10:53 PM 78.1 °F - 71.1 °F 79% 29.96 in 10.0 mi East 4.6 mph - N/A   Scattered Clouds
11:53 PM 77.0 °F - 72.0 °F 84% 29.97 in 10.0 mi ESE 5.8 mph - N/A   Scattered Clouds